Le nostre stazioni meteo in Italia

Pubblicità
Il mio iltempo24.it
Capo Bellavista, Italia (16550): Temperatura & dewpoint: 08.11.2019 10:00:00 - 14.11.2019 10:00:00 (CET)Capo Bellavista, Italia (16550): velocità del vento: 08.11.2019 10:00:00 - 14.11.2019 10:00:00 (CET)Capo Bellavista, Italia (16550): direzione del vento: 08.11.2019 10:00:00 - 14.11.2019 10:00:00 (CET)Capo Bellavista, Italia (16550): reduced air pressure: 08.11.2019 10:00:00 - 14.11.2019 10:00:00 (CET)Capo Bellavista, Italia (16550): visibility: 08.11.2019 10:00:00 - 14.11.2019 10:00:00 (CET)Capo Bellavista, Italia (16550): ore di luce: 08.11.2019 10:00:00 - 14.11.2019 10:00:00 (CET)
Data & Tempo tt [°C] td [°C] ff [km/h] ff [kn] dd ppp [hPa] vv [km] sd [min]
14.11.2019 10:00:00 14,0 -0,4 5 3 OSO 1006,7 30 60
14.11.2019 09:00:00 12,0 -0,8 21 11 ONO 1006,7 30 48
14.11.2019 08:00:00 11,4 -1,0 26 14 NO 1005,9 30 0
14.11.2019 07:00:00 11,0 2,3 29 16 NO 1005,6 20 -
14.11.2019 06:00:00 11,0 4,9 28 15 NO 1005,6 20 -
14.11.2019 05:00:00 11,8 4,8 22 12 NO 1005,4 20 -
14.11.2019 04:00:00 11,8 5,0 28 15 NO 1005,4 10 -
14.11.2019 03:00:00 12,0 5,2 18 10 ONO 1005,4 20 -
14.11.2019 02:00:00 13,0 4,9 13 7 NO 1005,6 20 -
14.11.2019 01:00:00 12,0 4,2 13 7 NNO 1005,8 20 -
14.11.2019 00:00:00 12,8 4,7 16 9 NO 1005,8 20 -
13.11.2019 23:00:00 13,2 7,9 15 8 ONO 1005,8 20 -
13.11.2019 22:00:00 13,0 5,9 11 6 NO 1005,8 20 -
13.11.2019 21:00:00 13,2 3,0 21 11 NNO 1005,4 20 -
13.11.2019 20:00:00 13,2 6,1 16 9 NO 1005,1 20 -
13.11.2019 19:00:00 15,0 4,1 15 8 NO 1004,6 20 -
13.11.2019 18:00:00 15,4 3,5 11 6 O 1003,7 20 -
13.11.2019 17:00:00 16,0 2,4 16 9 ONO 1003,6 20 0
13.11.2019 16:00:00 18,0 1,9 18 10 O 1002,5 20 0
13.11.2019 15:00:00 18,4 1,4 9 5 N 1002,4 30 60
13.11.2019 14:00:00 18,4 -0,9 31 17 O 1002,4 30 60
13.11.2019 13:00:00 19,0 0,1 15 8 NO 1002,4 30 60
13.11.2019 12:00:00 19,6 2,5 13 7 ESE 1002,3 30 60
13.11.2019 11:00:00 17,2 2,0 11 6 SE 1001,9 30 60
13.11.2019 10:00:00 17,4 1,4 9 5 N 1001,4 30 60
13.11.2019 09:00:00 15,2 -1,8 22 12 NO 1000,6 30 60
13.11.2019 08:00:00 13,8 -0,9 26 14 NO 998,8 30 30
13.11.2019 07:00:00 13,4 -3,6 35 19 ONO 997,9 30 -
13.11.2019 06:00:00 13,4 -2,9 18 10 ONO 997,7 30 -
13.11.2019 05:00:00 13,4 -2,2 29 16 NO 996,8 30 -
13.11.2019 04:00:00 13,4 -2,2 44 24 NO 996,4 30 -
13.11.2019 03:00:00 13,4 0,3 31 17 NNO 995,6 30 -
13.11.2019 02:00:00 13,8 1,0 28 15 NO 995,6 30 -
13.11.2019 01:00:00 13,8 3,1 29 16 NO 994,6 30 -
13.11.2019 00:00:00 14,0 4,4 48 26 NO 993,7 30 -
12.11.2019 23:00:00 14,6 6,9 46 25 NO 993,6 30 -
12.11.2019 22:00:00 14,6 7,8 35 19 NO 993,5 30 -
12.11.2019 21:00:00 14,2 8,9 35 19 NO 992,3 25 -
12.11.2019 20:00:00 14,0 10,6 28 15 NNO 991,7 20 -
12.11.2019 19:00:00 14,2 9,3 26 14 NNO 991,5 25 -
12.11.2019 18:00:00 15,0 10,6 34 18 N 990,6 25 -
12.11.2019 17:00:00 15,0 8,3 37 20 N 990,3 30 0
12.11.2019 16:00:00 15,0 8,7 35 19 NNO 990,3 30 0
12.11.2019 15:00:00 15,2 9,7 37 20 NNO 990,4 20 0
12.11.2019 14:00:00 14,8 6,3 46 25 NNE 991,6 25 0
12.11.2019 13:00:00 14,8 8,4 48 26 NNO 991,4 25 0
12.11.2019 12:00:00 15,0 10,6 41 22 N 992,6 25 0
12.11.2019 11:00:00 15,2 9,7 55 30 NNE 992,6 25 0
12.11.2019 10:00:00 15,0 7,8 37 20 N 994,0 25 0
12.11.2019 09:00:00 14,2 8,8 35 19 N 994,6 20 0
12.11.2019 08:00:00 14,0 9,8 39 21 N 995,6 16 0
12.11.2019 07:00:00 14,4 7,9 34 18 NNO 995,6 14 0
12.11.2019 06:00:00 14,4 7,2 34 18 N 996,3 20 -
12.11.2019 05:00:00 14,2 5,5 28 15 N 997,5 20 -
12.11.2019 04:00:00 13,8 8,4 24 13 NNO 997,6 20 -
12.11.2019 03:00:00 13,6 9,5 48 26 NE 998,6 20 -
12.11.2019 02:00:00 12,6 9,2 22 12 NNO 999,7 20 -
12.11.2019 01:00:00 12,2 8,9 24 13 NO 1001,3 20 -
12.11.2019 00:00:00 12,0 9,2 26 14 NO 1001,9 20 -
11.11.2019 23:00:00 11,9 10,1 28 15 NO 1002,9 20 -
11.11.2019 22:00:00 11,8 10,2 28 15 NO 1003,9 20 -
11.11.2019 21:00:00 12,0 11,2 26 14 NO 1004,1 20 -
11.11.2019 20:00:00 13,2 12,4 22 12 NO 1004,5 14 -
11.11.2019 19:00:00 13,4 12,7 13 7 ONO 1004,8 10 -
11.11.2019 18:00:00 14,2 11,9 13 7 ONO 1004,4 20 -
11.11.2019 17:00:00 14,8 9,4 15 8 SSO 1004,6 30 0
11.11.2019 16:00:00 14,4 9,6 22 12 S 1004,9 20 0
11.11.2019 15:00:00 14,0 12,4 11 6 SE 1005,3 20 0
11.11.2019 14:00:00 13,4 11,8 24 13 SSO 1005,5 16 0
11.11.2019 13:00:00 13,4 10,9 13 7 SSO 1005,9 4,0 0
11.11.2019 12:00:00 13,0 11,4 28 15 OSO 1006,2 3,0 0
11.11.2019 11:00:00 12,2 11,1 18 10 SO 1007,0 16 0
11.11.2019 10:00:00 11,6 11,0 11 6 NO 1006,9 10 0
11.11.2019 09:00:00 11,2 10,5 16 9 ONO 1006,9 25 0
11.11.2019 08:00:00 11,0 10,0 9 5 O 1006,3 25 0
11.11.2019 07:00:00 11,2 10,5 9 5 ONO 1005,6 20 0
11.11.2019 06:00:00 11,0 10,4 11 6 O 1005,6 20 -
11.11.2019 05:00:00 - - - - - - - -
11.11.2019 04:00:00 11,2 9,8 11 6 O 1005,5 20 -
11.11.2019 03:00:00 11,2 10,5 21 11 ONO 1005,5 20 -
11.11.2019 02:00:00 11,8 11,1 15 8 O 1005,3 20 -
11.11.2019 01:00:00 12,0 9,9 18 10 SO 1005,2 20 -
11.11.2019 00:00:00 11,4 9,6 18 10 O 1004,9 20 -
10.11.2019 23:00:00 12,0 9,5 16 9 OSO 1005,0 20 -
10.11.2019 22:00:00 12,4 10,3 28 15 OSO 1004,8 20 -
10.11.2019 21:00:00 12,2 9,4 18 10 OSO 1004,0 20 -
10.11.2019 20:00:00 12,6 9,8 15 8 O 1004,0 20 -
10.11.2019 19:00:00 12,2 11,2 15 8 O 1003,9 18 -
10.11.2019 18:00:00 12,4 10,3 16 9 SO 1003,9 20 -
10.11.2019 17:00:00 12,2 11,2 13 7 OSO 1003,8 25 0
10.11.2019 16:00:00 12,0 11,3 16 9 SSO 1004,8 16 0
10.11.2019 15:00:00 12,6 10,9 16 9 SSO 1004,7 25 0
10.11.2019 14:00:00 12,2 11,5 9 5 SO 1005,2 25 0
10.11.2019 13:00:00 11,6 10,9 15 8 SO 1006,6 8 0
10.11.2019 12:00:00 12,2 10,8 22 12 SO 1007,0 30 0
10.11.2019 11:00:00 14,0 5,7 13 7 SO 1007,5 30 0
10.11.2019 10:00:00 13,2 3,7 15 8 SSO 1007,8 20 12
10.11.2019 09:00:00 11,2 1,0 11 6 O 1007,9 30 6
10.11.2019 08:00:00 11,0 2,3 18 10 ONO 1007,9 30 12
10.11.2019 07:00:00 12,0 0,4 11 6 ONO 1007,9 20 -
10.11.2019 06:00:00 12,0 -0,7 11 6 SO 1008,3 30 -
10.11.2019 05:00:00 12,0 -0,7 15 8 ONO 1008,9 30 -
10.11.2019 04:00:00 13,0 -3,7 16 9 O 1008,8 30 -
10.11.2019 03:00:00 13,0 -3,7 4 2 NNE 1008,8 30 -
10.11.2019 02:00:00 13,0 1,3 15 8 ONO 1008,8 30 -
10.11.2019 01:00:00 13,2 0,5 24 13 O 1008,8 30 -
10.11.2019 00:00:00 13,0 0,8 16 9 ONO 1008,8 30 -
09.11.2019 23:00:00 13,0 0,2 9 5 NE 1008,5 30 -
09.11.2019 22:00:00 13,0 0,8 13 7 N 1008,1 30 -
09.11.2019 21:00:00 12,8 0,5 5 3 ENE 1008,1 30 -
09.11.2019 20:00:00 12,8 2,1 4 2 S 1008,3 30 -
09.11.2019 19:00:00 12,2 1,8 8 4 SE 1007,9 20 -
09.11.2019 18:00:00 13,0 2,9 15 8 NO 1007,8 30 0
09.11.2019 17:00:00 13,8 2,0 34 18 NNO 1006,8 30 18
09.11.2019 16:00:00 15,0 -0,2 28 15 NO 1006,4 30 48
09.11.2019 15:00:00 17,0 1,2 11 6 OSO 1006,3 30 60
09.11.2019 14:00:00 16,0 1,4 16 9 O 1006,3 30 60
09.11.2019 13:00:00 16,0 0,2 11 6 O 1006,6 30 36
09.11.2019 12:00:00 15,0 0,4 24 13 ONO 1007,8 30 54
09.11.2019 11:00:00 14,2 2,5 13 7 E 1007,9 30 60
09.11.2019 10:00:00 12,6 4,8 28 15 SO 1008,0 30 54
09.11.2019 09:00:00 11,6 5,7 21 11 OSO 1008,0 30 6
09.11.2019 08:00:00 10,4 6,2 15 8 OSO 1008,1 30 0
09.11.2019 07:00:00 10,4 6,5 22 12 OSO 1008,5 20 0
09.11.2019 06:00:00 11,0 9,4 11 6 O 1008,5 20 -
09.11.2019 05:00:00 12,2 5,4 22 12 O 1008,3 20 -
09.11.2019 04:00:00 12,4 3,6 24 13 O 1008,8 20 -
09.11.2019 03:00:00 12,0 4,5 26 14 SO 1008,8 20 -
09.11.2019 02:00:00 12,6 5,0 26 14 OSO 1008,8 20 -
09.11.2019 01:00:00 13,0 4,2 34 18 OSO 1008,9 20 -
09.11.2019 00:00:00 13,0 2,8 34 18 OSO 1008,9 20 -
08.11.2019 23:00:00 13,4 2,6 24 13 OSO 1008,8 20 -
08.11.2019 22:00:00 13,6 0,3 24 13 OSO 1008,8 20 -
08.11.2019 21:00:00 14,0 1,6 22 12 O 1006,8 20 -
08.11.2019 20:00:00 14,0 0,6 22 12 O 1006,6 20 -
08.11.2019 19:00:00 14,2 0,8 15 8 OSO 1005,9 20 -
08.11.2019 18:00:00 14,4 -0,5 24 13 O 1005,7 20 -
08.11.2019 17:00:00 14,8 -0,1 29 16 ONO 1005,7 30 0
08.11.2019 16:00:00 15,4 0,8 37 20 O 1004,8 20 12
08.11.2019 15:00:00 16,4 2,8 50 27 ONO 1004,4 30 48
08.11.2019 14:00:00 18,2 4,7 29 16 OSO 1003,4 30 42
08.11.2019 13:00:00 17,8 7,3 37 20 OSO 1003,9 20 30
08.11.2019 12:00:00 17,0 9,2 31 17 SO 1004,4 30 48
08.11.2019 11:00:00 15,8 10,4 31 17 SO 1005,0 30 0
08.11.2019 10:00:00 15,0 10,8 24 13 SSO 1005,0 30 0

tt = Temperatura
td = dewpoint
ff = velocità del vento
dd = direzione del vento
ppp = reduced air pressure
vv = visibility
sd = ore di luce

Stazioni seguenti

WeatherPro
AMSI
MeteoEarth